User: anonymous   Login
Location: Unspecified
(0.0000°N, 0.0000°E)
Time: 02:58:49
(UTC+00:00)
Language:

EGRS 7 - Orbit

View from above orbital plane
View from above orbital plane
View from above satellite
View from above satellite

Ground track
Ground track

The orbit data is extracted from the following two-line orbital elements,

1 02411U 66077B   18170.63849994 -.00000003  00000-0 -25568-2 0  9996
2 02411  90.2112 247.7582 0025980 105.9023 254.4694  8.59618134626906
Epoch (UTC): 19 June 2018 15:19:26
Eccentricity: 0.0025980
inclination: 90.2112°
perigee height: 3662 km
apogee height: 3714 km
right ascension of ascending node: 247.7582°
argument of perigee: 105.9023°
revolutions per day: 8.59618134
mean anomaly at epoch: 254.4694°
orbit number at epoch: 62690

The dashed part of the orbit path shows where the satellite is in the earth's shadow,  

DLR